Wind_Speed
52 54 55 56 58 59 61 62 63 65 66 67 68 70 71 71 71 71 71 71 71 71 71 70 68 68 67 67 66 66 66 67 67 65 66 66 67 67 67 67 68 67 66
54 55 57 58 59 60 61 63 64 65 66 68 69 70 70 70 69 69 68 69 69 68 67 67 66 67 67 67 66 66 66 67 67 65 64 64 64 65 65 66 66 65 64
56 57 58 59 60 61 62 63 64 64 64 65 66 66 66 67 67 67 66 66 66 66 66 65 65 66 66 65 65 66 66 67 66 65 63 63 63 64 65 65 64 63 63
60 60 61 61 62 62 62 62 62 62 62 62 62 63 63 64 64 64 64 64 64 64 64 63 63 63 63 64 65 65 65 65 65 65 64 63 63 63 64 64 62 61 61
63 63 63 63 62 61 60 60 60 60 60 61 61 61 61 61 61 62 62 62 62 62 63 62 61 61 62 63 63 63 64 64 64 64 64 62 61 62 62 62 61 60 59
64 64 63 62 61 60 59 59 59 59 60 60 60 61 61 61 61 62 62 62 61 62 61 60 59 59 60 61 61 61 62 62 62 62 61 60 60 61 61 60 60 59 58
65 64 63 61 60 60 59 59 59 60 60 60 61 61 61 61 61 61 61 60 59 60 59 59 58 58 59 59 59 60 59 60 60 60 60 59 59 59 59 59 59 58 57
65 64 62 61 60 60 59 59 60 60 61 60 60 60 60 59 59 58 59 58 58 57 56 56 55 56 56 58 58 58 57 57 58 59 58 58 58 57 57 57 57 56 55
65 64 62 61 61 60 60 60 60 60 59 59 58 58 58 57 56 56 57 57 56 55 54 54 54 54 55 56 55 55 55 55 56 56 56 55 55 54 55 55 55 54 54
64 63 62 61 60 60 59 59 58 58 58 57 57 57 56 55 55 55 55 55 54 53 52 52 52 52 52 53 53 52 53 53 53 53 53 52 52 52 53 53 53 53 52
63 61 60 59 59 58 57 57 57 56 56 55 55 54 53 53 52 52 52 52 51 50 50 50 50 49 50 50 50 50 50 50 50 50 50 49 49 49 49 50 50 50 50
61 59 58 58 57 57 56 55 54 54 53 53 52 51 50 50 49 49 49 49 48 48 47 47 47 46 47 47 48 48 48 48 47 47 47 47 47 47 46 46 46 46 46
59 58 57 56 56 55 55 53 53 52 52 50 49 48 47 46 46 46 46 46 46 45 44 44 43 43 44 44 45 45 45 45 45 44 44 44 44 44 43 43 43 43 43
57 56 55 54 53 53 52 52 51 51 49 48 47 46 44 44 45 45 45 44 44 44 42 41 41 41 41 41 42 42 42 42 42 42 42 41 41 40 40 41 40 41 41
55 54 53 52 51 50 50 49 49 48 47 46 45 45 44 44 45 44 44 43 42 41 40 39 39 39 39 39 39 39 39 39 39 39 38 38 37 37 38 38 39 39 39
53 51 50 49 49 48 47 46 45 45 45 45 45 45 44 44 43 43 42 41 40 39 38 37 37 36 37 36 36 36 37 36 36 35 35 35 35 36 36 37 37 37 36
52 50 48 47 46 46 45 44 43 43 43 43 44 44 44 43 42 41 40 39 38 37 36 35 34 34 34 34 34 34 34 33 33 33 33 34 34 34 35 35 35 35 34
49 48 47 45 45 45 44 43 43 42 41 41 42 43 43 42 40 39 38 37 36 35 33 33 32 33 33 33 32 31 31 30 31 32 33 33 33 34 34 33 33 33 32
47 46 45 44 44 43 42 41 41 41 41 41 41 41 40 38 37 37 36 35 34 32 31 31 30 31 31 30 30 29 29 29 30 32 32 32 33 33 32 31 31 31 31
44 44 43 43 42 41 40 40 40 40 40 40 38 37 36 35 35 35 34 32 31 30 29 28 29 29 29 29 28 28 28 29 30 31 31 31 31 31 30 30 30 30 29
43 42 42 41 40 40 39 39 39 39 38 37 35 35 35 35 34 33 31 29 28 27 27 26 27 27 27 27 27 27 27 28 29 30 30 30 30 29 29 29 28 28 28
41 41 40 39 38 38 39 38 38 37 36 35 34 34 34 33 31 30 29 27 26 25 24 25 25 25 26 25 25 26 27 28 29 29 29 29 28 28 27 27 26 26 25
39 39 38 37 37 37 37 36 36 35 34 33 33 32 31 30 29 28 26 25 24 24 24 24 24 25 25 24 24 25 26 27 28 28 28 27 26 26 25 25 25 24 23
37 37 36 36 36 36 35 34 33 32 32 31 30 29 28 27 27 26 24 23 23 23 23 23 23 23 24 24 24 25 26 27 27 27 26 25 24 24 24 24 23 23 22
36 36 35 34 34 34 34 33 32 31 30 29 28 27 26 26 25 24 23 22 22 22 22 22 22 23 23 23 23 25 25 25 25 25 25 24 24 23 23 23 22 21 20
34 34 33 33 33 33 32 31 30 29 28 27 26 25 25 24 23 22 22 22 22 22 21 21 22 21 21 22 23 24 24 23 23 24 24 23 23 23 22 21 20 19 17
Wind_Direction
298 297 296 295 294 294 293 293 292 292 291 291 290 290 291 291 290 289 289 289 290 290 291 291 291 291 291 291 291 292 292 292 292 293 293 293 293 294 293 294 294 294 294
299 298 297 296 295 295 294 293 293 292 292 292 292 292 291 291 290 290 290 290 290 290 290 289 290 289 289 290 290 291 291 292 292 293 293 294 294 294 294 294 295 295 295
300 299 299 298 297 296 295 294 294 294 293 293 293 293 292 291 291 290 290 290 290 290 289 288 288 288 288 288 289 290 291 292 292 293 294 294 294 294 294 295 295 295 295
301 301 300 299 298 297 297 296 295 295 295 294 294 294 293 292 291 291 290 290 290 289 289 288 288 287 288 288 289 290 290 291 292 293 293 293 294 294 295 295 295 295 295
302 302 301 300 299 299 298 297 296 296 295 295 295 294 294 293 292 291 291 291 290 289 289 288 288 287 288 289 289 290 290 291 292 292 294 294 294 294 295 295 295 295 295
303 302 302 301 300 299 299 298 297 296 296 296 295 295 294 293 293 292 292 291 291 290 290 289 288 288 289 289 289 290 291 292 292 293 293 294 295 295 296 296 296 296 296
303 302 301 300 299 299 298 298 297 297 297 296 296 295 295 294 293 292 292 292 292 292 291 289 288 288 288 289 290 290 291 292 293 293 294 295 296 296 296 296 296 297 298
302 302 301 300 299 298 298 297 297 297 297 297 297 296 296 295 294 293 293 293 292 292 291 289 288 289 289 288 288 289 291 292 293 294 294 295 296 296 296 297 297 297 297
302 301 300 299 299 298 298 298 298 298 298 298 298 297 297 296 295 295 294 294 293 292 291 290 290 289 289 289 289 290 291 292 293 294 294 295 295 296 296 297 298 298 298
301 301 300 299 299 298 298 298 299 299 299 300 299 299 298 296 295 295 295 295 294 293 292 292 290 290 290 290 290 290 291 292 292 293 295 296 296 296 297 297 298 298 300
302 301 300 299 298 298 299 299 299 300 301 301 301 300 299 298 297 297 296 296 295 293 293 293 291 290 290 290 290 292 292 292 293 295 296 297 297 297 297 299 300 300 301
301 301 300 299 299 299 300 300 301 301 302 302 302 301 301 300 299 299 298 298 297 295 295 294 292 291 291 291 292 292 293 294 295 296 297 298 298 298 299 300 301 302 302
301 301 300 300 300 301 301 302 302 302 302 302 302 302 302 302 301 301 300 299 298 297 296 295 293 293 292 293 293 293 293 295 296 298 298 299 299 300 300 301 302 303 304
303 303 302 302 302 302 303 303 303 303 303 304 304 304 303 303 301 301 301 300 299 299 298 296 294 294 294 294 295 295 295 296 297 298 299 300 300 301 302 303 304 305 305
306 305 304 304 304 304 304 304 304 304 305 305 305 305 305 304 302 302 302 301 300 300 299 298 296 295 296 296 296 296 297 298 299 299 300 301 302 303 304 305 306 306 307
308 307 306 306 306 306 306 305 305 305 306 306 305 306 306 305 304 303 303 302 301 300 299 298 297 296 297 297 297 298 299 300 300 300 301 303 304 305 305 306 307 309 309
309 308 308 308 308 308 308 307 306 306 306 306 306 306 307 306 305 304 304 304 302 301 300 298 297 298 298 299 299 300 301 301 301 301 303 304 306 307 307 307 308 310 310
311 310 310 310 310 310 309 309 308 308 307 308 308 308 308 307 306 305 304 304 304 302 300 298 298 298 299 300 301 302 302 302 303 304 305 306 307 307 308 308 309 311 312
312 312 312 312 312 311 310 310 310 310 310 310 310 309 309 309 308 306 305 304 303 302 300 298 298 299 299 300 302 303 302 303 304 306 307 307 308 308 308 308 309 311 313
313 313 313 313 312 312 311 311 311 312 312 312 312 311 310 310 310 309 307 305 303 301 300 299 299 300 301 302 303 303 303 304 306 308 309 309 309 309 309 308 309 310 312
314 314 314 313 313 313 312 313 313 313 314 313 313 312 312 312 311 311 309 307 305 303 300 300 301 303 303 303 303 303 304 306 309 310 311 311 310 310 309 310 310 310 311
315 316 316 315 315 315 315 315 315 315 315 314 314 314 314 314 314 312 310 309 307 305 303 303 303 305 306 305 304 304 306 308 311 312 312 312 311 310 310 310 310 311 311
316 317 317 317 317 318 318 318 318 318 317 316 316 316 316 316 316 315 313 311 309 306 305 305 306 307 306 306 306 307 308 310 312 314 314 314 313 312 312 311 311 312 312
317 318 318 319 320 320 321 321 321 320 320 319 319 319 319 320 319 318 316 314 311 309 308 308 309 309 309 308 308 309 311 312 314 316 317 317 316 315 314 312 312 313 312
318 320 320 321 322 322 323 323 323 323 323 323 322 321 321 321 322 321 319 317 315 314 312 312 312 312 311 310 311 312 314 315 316 317 318 318 318 316 315 314 313 313 313
320 321 322 324 324 324 325 325 325 325 326 326 325 324 324 324 325 324 322 320 318 317 317 317 317 316 315 314 315 316 316 317 318 319 320 320 320 318 316 314 313 313 312
Height
5672 5666 5660 5654 5648 5641 5635 5629 5623 5617 5610 5604 5598 5592 5587 5581 5576 5571 5566 5560 5554 5550 5545 5541 5536 5531 5526 5521 5515 5510 5505 5500 5496 5494 5486 5479 5472 5466 5460 5453 5446 5440 5433
5658 5652 5645 5639 5632 5625 5619 5612 5606 5599 5593 5586 5580 5574 5568 5562 5556 5551 5546 5541 5535 5531 5526 5521 5517 5512 5507 5502 5497 5492 5487 5481 5477 5473 5468 5460 5454 5447 5440 5433 5426 5419 5413
5644 5637 5630 5623 5616 5609 5602 5595 5588 5582 5575 5569 5562 5555 5549 5543 5537 5532 5527 5522 5517 5512 5507 5503 5499 5493 5489 5484 5478 5474 5468 5463 5457 5453 5449 5442 5435 5428 5420 5414 5407 5400 5393
5628 5621 5614 5606 5599 5592 5585 5578 5571 5565 5558 5551 5545 5538 5532 5525 5519 5513 5508 5503 5498 5494 5489 5484 5480 5475 5470 5465 5460 5455 5450 5444 5439 5434 5430 5424 5417 5409 5401 5395 5389 5382 5375
5611 5604 5597 5589 5582 5575 5568 5561 5554 5548 5541 5534 5528 5522 5515 5508 5502 5495 5490 5485 5480 5475 5471 5466 5461 5456 5452 5446 5442 5437 5431 5426 5421 5415 5411 5405 5399 5391 5383 5376 5369 5363 5357
5594 5587 5579 5572 5565 5558 5551 5544 5537 5531 5524 5517 5511 5504 5498 5491 5484 5478 5472 5467 5462 5458 5453 5448 5443 5438 5434 5428 5424 5419 5414 5408 5403 5397 5392 5386 5380 5372 5364 5357 5350 5344 5340
5577 5569 5562 5555 5548 5541 5534 5527 5521 5514 5507 5501 5494 5487 5481 5474 5466 5460 5454 5449 5445 5440 5435 5430 5425 5421 5416 5411 5406 5401 5396 5390 5385 5380 5374 5368 5361 5354 5346 5340 5332 5325 5320
5559 5551 5544 5537 5531 5524 5517 5510 5503 5496 5490 5483 5476 5469 5463 5456 5448 5442 5436 5432 5428 5423 5418 5413 5408 5404 5399 5394 5389 5384 5380 5374 5368 5362 5357 5351 5343 5336 5328 5322 5315 5308 5303
5541 5534 5526 5519 5512 5506 5499 5492 5485 5479 5472 5465 5458 5451 5445 5439 5431 5425 5419 5415 5410 5406 5401 5396 5392 5387 5382 5376 5372 5369 5364 5358 5352 5346 5340 5334 5327 5319 5312 5305 5298 5291 5286
5523 5516 5508 5501 5494 5488 5481 5474 5467 5460 5454 5448 5441 5434 5427 5421 5415 5409 5403 5398 5394 5389 5385 5380 5375 5370 5365 5360 5356 5353 5348 5343 5336 5330 5324 5318 5311 5304 5297 5289 5282 5275 5269
5505 5498 5490 5483 5476 5470 5463 5457 5450 5444 5438 5431 5424 5418 5411 5404 5399 5393 5387 5382 5378 5373 5369 5364 5359 5354 5350 5345 5341 5337 5333 5327 5321 5316 5310 5304 5297 5290 5283 5275 5268 5260 5254
5487 5480 5473 5466 5459 5453 5447 5440 5434 5427 5421 5415 5409 5402 5396 5389 5383 5378 5372 5367 5362 5358 5354 5349 5344 5339 5335 5330 5326 5322 5317 5312 5307 5301 5296 5290 5283 5276 5269 5263 5256 5248 5241
5470 5464 5457 5450 5443 5437 5430 5424 5418 5412 5406 5400 5394 5388 5382 5376 5370 5364 5358 5353 5348 5343 5339 5334 5330 5325 5321 5317 5313 5308 5303 5298 5293 5288 5282 5276 5270 5263 5257 5250 5244 5237 5230
5454 5447 5441 5434 5429 5422 5415 5409 5403 5397 5391 5385 5379 5374 5368 5363 5357 5351 5345 5340 5335 5330 5325 5321 5316 5312 5308 5304 5300 5295 5290 5285 5280 5275 5270 5264 5258 5251 5245 5238 5232 5226 5219
5439 5432 5426 5419 5413 5408 5401 5395 5389 5383 5376 5371 5366 5360 5355 5350 5344 5338 5332 5327 5322 5317 5312 5308 5304 5300 5296 5292 5288 5283 5278 5273 5268 5263 5258 5253 5247 5241 5234 5228 5221 5215 5209
5424 5418 5412 5405 5399 5393 5388 5382 5376 5370 5364 5358 5352 5347 5341 5336 5330 5325 5320 5314 5309 5305 5301 5297 5293 5289 5285 5281 5276 5272 5267 5262 5257 5252 5247 5242 5237 5231 5224 5218 5212 5205 5199
5410 5404 5398 5392 5386 5380 5374 5369 5364 5359 5352 5346 5340 5334 5328 5323 5318 5312 5307 5302 5298 5293 5289 5286 5282 5278 5274 5270 5266 5261 5257 5252 5247 5243 5238 5232 5227 5221 5215 5209 5203 5196 5190
5398 5391 5385 5379 5373 5367 5362 5356 5350 5345 5340 5335 5328 5322 5316 5311 5305 5300 5296 5291 5287 5282 5279 5275 5271 5268 5264 5260 5256 5251 5247 5243 5238 5233 5228 5223 5217 5211 5206 5200 5194 5188 5183
5386 5380 5374 5368 5362 5356 5350 5344 5339 5333 5328 5323 5317 5311 5305 5300 5294 5289 5284 5280 5276 5272 5269 5265 5262 5258 5254 5250 5246 5242 5238 5234 5229 5224 5219 5214 5208 5202 5197 5192 5186 5181 5175
5375 5369 5363 5357 5351 5345 5339 5334 5328 5322 5317 5311 5306 5300 5295 5290 5285 5279 5274 5270 5266 5263 5259 5256 5253 5249 5245 5242 5238 5234 5230 5225 5221 5216 5210 5205 5200 5194 5189 5184 5179 5174 5169
5365 5359 5353 5347 5341 5335 5329 5324 5318 5312 5306 5301 5296 5291 5285 5280 5275 5270 5265 5261 5257 5254 5251 5247 5244 5241 5237 5233 5229 5226 5222 5217 5213 5208 5203 5197 5192 5187 5182 5177 5173 5168 5163
5355 5349 5343 5337 5332 5326 5320 5314 5308 5303 5297 5292 5287 5282 5276 5271 5266 5261 5257 5253 5249 5246 5243 5240 5237 5233 5229 5226 5222 5218 5214 5210 5205 5200 5195 5190 5185 5180 5175 5171 5166 5162 5157
5346 5341 5335 5329 5323 5317 5311 5306 5300 5294 5289 5284 5279 5273 5268 5263 5259 5254 5250 5246 5243 5240 5236 5233 5230 5226 5222 5219 5215 5211 5207 5203 5198 5193 5188 5183 5178 5173 5169 5165 5161 5156 5152
5338 5332 5327 5321 5315 5310 5304 5298 5293 5287 5282 5276 5271 5266 5261 5257 5253 5248 5244 5241 5237 5234 5230 5227 5223 5220 5216 5212 5209 5204 5200 5195 5191 5186 5181 5176 5172 5167 5163 5159 5155 5151 5147
5330 5325 5319 5314 5308 5302 5297 5291 5286 5281 5275 5270 5265 5260 5255 5251 5247 5243 5239 5236 5232 5228 5225 5221 5217 5214 5210 5206 5202 5198 5194 5189 5184 5180 5175 5171 5166 5162 5157 5153 5150 5146 5143
5323 5318 5312 5307 5301 5296 5290 5285 5280 5275 5269 5264 5259 5254 5250 5246 5242 5238 5234 5231 5227 5223 5220 5216 5212 5208 5204 5200 5196 5192 5188 5183 5179 5174 5170 5165 5161 5156 5152 5149 5145 5142 5139